Weather History for Jamestown, ND

Change the Weather History Date:

Monday, January 7, 2013

  Actual Average Record
Temperature  
Mean Temperature 20 °F 10 °F  
Max Temperature 34 °F 20 °F 49 °F (1963)
Min Temperature 6 °F 1 °F -29 °F (1929)
Degree Days  
Heating Degree Days 45 55  
Month to date heating degree days 347 383  
Since 1 July heating degree days 3995 4043  
Cooling Degree Days 0 0  
Month to date cooling degree days 0 0  
Year to date cooling degree days 0 0  
Moisture  
Dew Point 18 °F    
Average Humidity 76    
Maximum Humidity 92    
Minimum Humidity 59    
Precipitation  
Precipitation 0.00 in 0.02 in 0.31 in (1977)
Month to date precipitation T 0.11  
Year to date precipitation T 0.11  
Sea Level Pressure  
Sea Level Pressure 29.85 in    
Wind  
Wind Speed 13 mph (West)    
Max Wind Speed 23 mph    
Max Gust Speed 30 mph    
Visibility 10 miles    
Events      
T = Trace of Precipitation, MM = Missing Value Source: NWS Daily Summary

Daily Weather History Graph

Daily Weather History Graph

Search for Another Location

Airport:

Trip Planner

Search our weather history database for the weather conditions in past years. The results will help you decide how hot, cold, wet, or windy it might be!

Date:

Astronomy

Jan. 07, 2013 Rise Set
Actual Time 8:19 AM CST 5:03 PM CST
Civil Twilight 7:44 AM CST 5:38 PM CST
Nautical Twilight 7:06 AM CST 6:16 PM CST
Astronomical Twilight 6:29 AM CST 6:53 PM CST
Moon 3:40 AM CST (1/7) 1:18 PM CST (1/7)
Length of Visible Light 9h 53m
Length of Day
8h 43m
Waning Crescent, 22% of the Moon is Illuminated
Jan 7
Waning Crescent
Jan 11
New
Jan 18
First Quarter
Jan 26
Full
Feb 3
Last Quarter

Hourly Weather History & Observations

Time (CST) Temp. Windchill Dew Point Humidity Pressure Visibility Wind Dir Wind Speed Gust Speed Precip Events Conditions
12:56 AM 28.9 °F 18.6 °F 19.0 °F 67% 29.77 in 10.0 mi West 12.7 mph 21.9 mph N/A   Clear
1:56 AM 30.9 °F 20.7 °F 21.0 °F 67% 29.75 in 10.0 mi West 13.8 mph - N/A   Overcast
2:56 AM 33.1 °F 21.9 °F 21.9 °F 64% 29.78 in 10.0 mi West 18.4 mph - N/A   Overcast
3:56 AM 34.0 °F 23.0 °F 21.9 °F 61% 29.78 in 10.0 mi West 18.4 mph - N/A   Clear
4:56 AM 30.0 °F 18.7 °F 19.9 °F 66% 29.79 in 10.0 mi West 16.1 mph - N/A   Clear
5:56 AM 30.9 °F 19.4 °F 19.9 °F 64% 29.81 in 10.0 mi West 17.3 mph 24.2 mph N/A   Clear
6:56 AM 30.0 °F 20.0 °F 19.9 °F 66% 29.82 in 10.0 mi West 12.7 mph - N/A   Clear
7:56 AM 28.0 °F 18.1 °F 19.0 °F 69% 29.84 in 10.0 mi WSW 11.5 mph - N/A   Clear
8:56 AM 28.9 °F 17.3 °F 19.9 °F 69% 29.84 in 10.0 mi WSW 16.1 mph 21.9 mph N/A   Clear
9:56 AM 28.0 °F 16.5 °F 19.0 °F 69% 29.87 in 10.0 mi West 15.0 mph - N/A   Clear
10:56 AM 30.0 °F 17.9 °F 19.0 °F 64% 29.88 in 10.0 mi West 18.4 mph 24.2 mph N/A   Clear
11:56 AM 30.9 °F 18.7 °F 19.0 °F 61% 29.86 in 10.0 mi West 19.6 mph - N/A   Clear
12:56 PM 32.0 °F 20.8 °F 19.9 °F 61% 29.84 in 10.0 mi West 17.3 mph 25.3 mph N/A   Clear
1:56 PM 33.1 °F 21.9 °F 21.0 °F 61% 29.85 in 10.0 mi West 18.4 mph - N/A   Clear
2:56 PM 32.0 °F 21.2 °F 21.0 °F 64% 29.86 in 10.0 mi West 16.1 mph - N/A   Clear
3:56 PM 30.9 °F 21.2 °F 21.0 °F 67% 29.88 in 10.0 mi WNW 12.7 mph - N/A   Clear
4:56 PM 28.0 °F 19.3 °F 19.0 °F 69% 29.88 in 10.0 mi NW 9.2 mph - N/A   Clear
6:56 PM 21.0 °F 14.6 °F 16.0 °F 81% 29.91 in 10.0 mi SW 4.6 mph - N/A   Clear
7:56 PM 18.0 °F 9.8 °F 15.1 °F 88% 29.94 in 10.0 mi WSW 5.8 mph - N/A   Clear
8:56 PM 15.1 °F - 12.9 °F 91% 29.92 in 10.0 mi Calm Calm - N/A   Clear
9:56 PM 12.0 °F 4.1 °F 9.0 °F 88% 29.93 in 10.0 mi SW 4.6 mph - N/A   Clear
10:56 PM 9.0 °F 0.6 °F 6.1 °F 88% 29.91 in 10.0 mi SSW 4.6 mph - N/A   Clear
11:56 PM 10.0 °F -0.9 °F 6.1 °F 84% 29.89 in 10.0 mi SSW 6.9 mph - N/A   Clear